Location: Fernhill
(41.0167°S, 175.6333°E)
Time: 06:21:59
(UTC+00:00)

CZ-2D R/B - Pass Details

Date: 08 November 2025
Orbit: 525 x 597 km, 98.0° (Epoch: 11 December)

Event Time Altitude Azimuth Distance (km) Brightness Sun altitude
Rises 07:49:58 0° 174° (S) 2,704 7.2 -8.2°
Reaches altitude 10° 07:52:09 10° 179° (S) 1,805 6.4 -8.5°
Maximum altitude 07:55:53 47° 253° (WSW) 718 4.5 -9.1°
Drops below altitude 10° 07:59:36 10° 327° (NNW) 1,792 6.0 -9.7°
Sets 08:01:45 0° 332° (NNW) 2,682 6.8 -10.0°
